Location: *
(51.5000°N, 0.1100°W)
Time: 20:33:06
(UTC+00:00)

Cosmos 968 Rocket - Pass Details

Date: 25 May 2024
Orbit: 737 x 769 km, 74.0° (Epoch: 23 June)

Event Time Altitude Azimuth Distance (km) Brightness Sun altitude
Exits shadow 02:20:52 15° 210° (SSW) 1,933 4.9 -11.0°
Maximum altitude 02:25:08 77° 296° (WNW) 769 3.5 -10.6°
Drops below altitude 10° 02:30:18 10° 23° (NNE) 2,276 7.4 -10.1°
Sets 02:32:41 0° 25° (NNE) 3,209 8.7 -9.9°
